Presure
126 127 100 137 103 142 115 143 129 154 142 146 135 146 156 139 150 139 132 141 150 126 143 139 136 143 138 148 146 135 161 138 150 163 164 184 200 175 178 158 148 164 167 191 194
127 125 132 135 117 141 94 141 152 140 158 139 154 147 144 145 154 149 152 125 119 134 136 138 145 128 156 140 139 146 170 149 150 149 161 203 190 182 149 187 156 169 166 161 187
139 137 139 135 128 132 146 160 139 161 141 154 161 151 143 140 146 148 162 120 132 113 139 135 142 129 145 121 128 122 155 163 158 146 145 150 176 187 189 186 167 180 180 168 168
166 146 134 137 136 136 152 148 131 139 140 151 123 157 126 143 135 146 128 151 114 134 139 124 137 138 136 142 131 144 158 133 140 140 142 151 171 161 205 189 174 180 172 161 181
134 126 157 143 145 134 131 141 136 144 152 125 142 143 162 144 135 139 136 133 158 123 130 132 115 136 140 131 138 143 144 166 141 129 132 146 153 182 166 197 188 178 170 186 167
135 121 139 140 125 141 146 133 135 137 148 140 146 146 122 118 134 154 156 147 145 131 125 151 132 128 130 129 120 134 153 143 162 137 142 140 152 152 173 195 175 183 179 190 180
137 138 136 167 127 141 131 128 157 149 125 149 128 152 128 116 134 110 131 133 148 130 129 124 132 152 149 134 149 143 147 136 142 181 165 169 162 156 165 207 188 171 174 179 195
130 162 150 141 142 132 152 142 159 155 128 122 124 135 148 121 118 120 162 127 134 130 141 120 111 145 145 148 140 152 123 151 168 176 152 145 151 154 186 165 180 188 182 191 186
189 132 159 124 143 124 136 122 128 154 130 157 118 121 116 112 131 126 108 129 129 135 129 123 138 120 141 139 142 143 121 149 182 172 200 137 152 166 159 181 192 176 196 190 171
192 164 161 173 134 145 128 128 179 145 127 167 118 129 123 116 143 121 123 126 130 133 132 126 145 166 136 148 141 137 145 153 179 183 175 176 170 165 186 179 191 192 192 190 178
153 151 152 157 143 125 138 124 128 133 158 159 120 129 146 119 122 107 133 125 123 103 127 170 125 148 152 142 137 143 149 160 189 181 177 159 170 168 176 188 189 191 206 188 199
144 146 165 165 162 121 167 151 157 111 140 132 121 112 122 116 108 122 174 127 133 129 125 131 119 137 173 141 176 177 147 131 177 140 174 162 174 168 187 188 193 208 191 196 223
143 151 162 169 158 160 127 157 143 127 145 162 169 126 137 118 117 113 156 125 153 131 136 125 167 160 194 182 189 185 181 176 180 146 157 177 175 186 196 206 196 202 218 208 205
145 153 169 153 153 170 162 157 160 156 153 172 175 161 129 127 133 126 117 173 132 161 124 191 166 174 182 190 124 183 183 142 136 160 157 177 184 212 199 206 218 235 226 215 113
149 147 150 165 156 156 153 176 176 179 174 154 167 145 111 113 117 113 167 163 131 125 192 125 141 181 191 161 189 189 145 163 149 167 168 192 201 212 219 206 222 197 197 142 185
141 138 127 147 150 164 156 165 161 156 164 156 157 176 125 127 106 178 146 120 132 177 177 208 199 176 192 121 172 177 173 153 162 165 174 199 212 210 226 225 178 185 202 152 198
140 150 148 147 154 161 167 159 158 164 136 172 169 159 116 169 141 159 105 161 171 176 205 175 124 175 172 142 127 150 150 171 181 166 184 213 215 228 240 206 202 187 179 177 99
151 134 145 158 166 172 137 148 153 149 150 148 166 149 144 140 113 148 120 185 171 176 101 191 184 176 188 128 140 142 178 170 171 170 220 224 231 195 216 194 175 175 177 135 155
126 143 144 154 154 129 158 143 139 142 154 149 141 153 153 152 146 159 171 105 167 108 161 178 145 118 119 136 143 172 165 169 183 178 213 230 195 214 192 182 171 170 91 129 209
138 159 131 144 126 137 145 141 149 151 156 154 157 151 144 157 145 164 163 113 156 172 162 171 180 119 114 139 141 164 181 176 173 215 222 212 184 193 172 166 167 166 160 189 215
172 137 135 126 134 139 152 139 153 146 150 147 157 147 138 154 162 154 147 145 180 163 162 170 108 122 123 164 154 171 169 194 201 211 218 201 185 186 183 156 170 153 162 215 202
220 197 190 192 149 140 197 149 134 150 145 159 148 151 164 137 167 155 134 160 170 167 174 134 116 189 116 175 187 170 167 176 213 220 210 195 181 176 178 151 179 156 177 202 192
218 247 183 105 162 129 135 151 152 151 130 149 148 138 159 157 201 139 209 214 194 180 165 123 136 116 162 178 166 178 167 215 213 220 194 194 189 176 169 185 178 157 207 202 186
183 126 182 169 118 181 151 130 191 158 163 158 186 199 154 218 187 196 211 194 167 189 160 132 150 130 161 192 197 176 185 201 203 212 190 188 185 184 156 160 176 185 187 199 190
244 148 139 123 189 180 130 132 135 166 147 148 203 177 176 165 192 202 201 166 180 165 206 133 154 145 170 169 180 192 204 213 206 210 187 185 178 189 168 158 179 198 194 190 186
136 179 244 242 174 148 130 141 129 147 146 155 202 99 151 214 175 206 204 197 178 117 187 125 192 156 171 193 176 178 203 207 222 206 183 184 178 184 174 158 191 197 190 183 180
248 171 163 252 241 161 146 173 200 155 196 195 166 149 144 145 192 141 182 190 179 169 130 136 181 178 174 189 197 175 206 207 217 189 182 179 180 174 172 156 190 194 186 194 183
Wind_Speed
37 36 25 26 21 24 20 23 21 33 22 27 21 27 32 17 30 22 8 22 30 13 23 18 14 28 21 33 30 13 43 17 32 45 38 27 29 37 32 22 12 26 25 25 19
44 41 35 30 33 25 21 35 35 23 35 23 34 25 25 21 26 27 29 9 11 17 15 18 26 8 37 25 25 29 43 33 33 30 46 32 36 38 30 33 24 28 29 24 27
43 41 37 33 34 27 30 45 22 41 23 36 39 33 25 16 27 29 35 15 14 15 22 15 26 11 31 18 12 16 43 39 40 33 27 35 41 40 36 37 35 34 31 33 31
55 48 40 36 34 31 36 31 26 22 23 33 24 36 18 22 11 27 14 34 20 23 24 16 24 24 17 28 17 37 47 23 28 29 34 34 40 45 36 36 41 39 31 31 36
50 45 52 38 42 35 33 30 27 30 37 27 29 29 44 24 17 21 25 17 38 18 20 21 19 27 29 17 24 38 38 52 30 26 31 41 41 51 41 37 37 41 38 41 34
52 47 45 43 38 40 40 31 29 27 34 29 37 32 24 24 17 36 40 30 33 22 23 41 25 21 30 24 24 25 52 45 54 34 39 43 47 46 46 41 48 44 45 44 43
55 50 47 60 42 43 38 35 49 40 33 39 28 40 22 24 20 25 19 20 37 24 26 25 29 48 48 31 47 42 48 38 44 54 49 45 46 52 54 46 45 47 47 49 47
55 57 53 51 47 42 45 40 52 46 33 34 30 27 34 22 26 24 46 23 30 28 35 30 30 47 46 53 43 53 31 57 59 56 46 47 41 50 59 53 55 55 53 51 51
73 53 60 48 50 41 43 36 37 50 35 50 29 29 28 27 23 25 26 29 29 34 31 32 42 36 46 46 49 50 35 59 56 58 54 53 48 48 50 55 56 53 55 56 47
91 66 63 66 51 54 42 39 51 47 38 62 30 31 29 30 40 28 28 28 35 36 36 38 43 57 46 54 51 49 59 61 54 55 55 55 56 52 57 63 58 60 61 59 55
57 60 60 60 59 50 47 41 44 43 51 55 31 31 42 29 27 31 34 31 34 33 37 60 37 54 61 55 49 53 63 61 55 56 55 58 58 58 65 66 64 66 63 58 61
59 59 72 68 61 47 68 49 52 39 48 43 34 27 29 31 31 32 61 35 41 39 39 46 38 54 63 57 59 62 60 54 55 61 55 50 60 61 67 67 70 63 61 60 50
60 62 69 73 62 60 49 55 49 48 50 57 63 39 41 30 33 34 56 39 56 46 51 42 66 62 59 59 54 56 58 56 54 61 60 59 60 68 66 68 63 62 60 52 47
63 66 73 63 59 69 63 57 53 54 55 69 67 55 38 37 43 36 39 57 48 54 45 65 60 62 61 54 55 54 55 60 65 57 59 61 64 63 61 66 66 56 50 48 33
67 63 64 70 62 60 56 75 78 76 70 56 59 48 36 35 35 39 53 54 56 48 68 38 53 53 54 53 50 51 59 56 64 56 60 65 66 64 63 52 50 42 42 38 36
64 58 49 59 57 64 61 71 65 57 65 58 56 69 40 44 39 61 56 44 37 56 59 54 53 50 50 60 54 51 51 60 58 57 62 68 63 56 50 42 39 40 41 33 41
63 68 63 59 65 66 69 62 61 66 51 67 63 63 41 57 45 48 32 49 54 55 57 56 43 54 53 60 64 56 60 55 61 59 65 66 63 56 42 37 32 31 34 37 31
72 57 62 69 74 76 49 56 63 58 59 53 62 49 47 44 45 48 40 56 49 49 26 53 54 55 53 62 59 60 55 55 56 61 64 61 52 45 36 35 37 37 40 37 33
60 66 60 64 63 46 67 56 54 57 63 54 47 52 50 48 47 48 51 22 50 32 57 53 46 59 55 59 59 55 57 54 61 64 57 55 40 40 37 39 41 42 41 31 43
63 79 56 55 49 52 60 59 63 63 64 57 61 49 50 46 42 48 50 31 51 56 55 52 54 60 55 59 61 54 61 58 59 56 54 50 43 43 42 42 44 44 45 48 45
89 67 62 56 56 60 72 58 64 55 57 50 61 51 49 47 49 47 56 58 54 52 56 53 46 60 54 54 57 55 54 63 60 53 49 47 42 45 45 39 45 43 49 48 47
106 104 95 96 68 63 94 63 49 64 51 67 52 51 63 51 55 48 61 54 55 56 57 61 60 58 59 58 58 55 55 58 56 50 44 45 45 48 50 37 48 47 51 47 51
105 89 92 43 76 65 62 66 68 61 52 59 55 52 58 52 62 57 70 64 62 57 59 60 66 60 58 57 55 61 56 56 56 48 45 45 45 51 49 48 50 51 51 50 50
69 71 76 80 63 90 76 60 86 67 75 72 70 71 56 74 67 73 69 64 60 58 59 63 63 70 58 63 58 62 64 57 56 49 50 43 55 48 38 41 52 55 51 54 55
77 80 71 72 95 88 64 62 57 68 53 55 76 67 57 55 70 71 62 59 58 57 62 62 59 63 58 56 62 68 61 56 54 49 52 50 55 54 49 50 56 57 56 57 58
80 73 81 81 81 73 67 70 66 66 56 60 75 38 51 71 58 69 65 64 58 55 61 62 63 60 61 65 61 68 60 55 50 47 53 55 56 57 58 55 61 59 58 60 61
62 78 79 79 81 77 68 81 89 68 82 76 75 61 58 60 69 64 63 65 64 60 64 65 61 63 62 64 63 65 60 55 49 48 53 56 58 58 60 59 62 60 60 64 62
Wind_Direction
224 226 246 223 251 235 248 251 232 270 273 278 268 284 284 297 298 294 310 321 323 323 349 349 352 356 0 350 356 352 344 324 359 348 353 330 315 333 337 328 289 331 334 305 300
225 229 227 223 242 234 262 248 261 256 268 270 279 282 287 292 286 299 299 272 277 326 342 340 342 302 333 338 351 339 332 352 338 351 352 322 319 322 311 315 316 323 323 317 297
220 225 225 224 222 233 246 259 244 267 258 275 279 277 280 279 295 299 299 266 311 290 330 328 337 301 342 297 294 303 340 336 340 347 334 348 342 316 310 307 316 310 309 313 315
236 229 225 228 227 229 250 253 230 250 256 270 235 277 232 278 268 284 274 296 284 311 321 301 334 329 333 338 317 341 334 336 339 332 335 340 331 336 307 301 319 307 313 307 298
218 226 234 228 235 229 228 241 237 253 263 234 264 268 279 270 273 279 280 287 296 285 299 307 302 328 324 314 331 335 337 328 328 312 320 327 331 328 329 303 300 305 313 299 307
224 236 222 230 229 235 238 230 234 240 261 254 263 264 238 250 274 285 283 286 290 293 288 303 308 299 306 311 303 323 322 328 324 323 323 323 325 321 319 301 319 303 304 297 298
227 226 230 243 228 233 228 229 251 253 235 259 238 269 235 264 268 277 286 294 288 296 295 294 309 306 306 313 318 324 323 321 321 316 320 323 327 317 324 300 299 307 312 302 297
230 236 230 226 229 230 239 240 252 253 234 244 242 249 269 249 259 271 280 290 292 296 305 293 309 308 313 314 318 317 312 317 315 313 318 314 322 311 315 321 313 301 306 300 302
235 232 233 233 229 233 228 234 231 252 239 256 247 246 256 263 271 277 281 296 300 302 295 296 310 296 311 311 317 320 314 315 313 313 313 313 313 316 316 312 299 317 299 301 308
235 240 236 243 230 232 235 232 254 245 239 253 242 248 250 258 267 273 285 295 297 296 301 302 298 305 308 308 314 315 312 313 309 311 314 318 317 318 312 316 306 305 304 302 303
228 228 232 238 230 232 242 235 236 239 253 254 249 254 263 259 267 276 286 289 286 299 296 301 299 300 296 309 312 310 307 308 310 314 317 313 317 318 319 311 311 309 302 303 302
227 230 239 242 244 235 251 244 250 245 247 245 247 250 254 257 268 280 279 292 294 294 293 299 303 303 296 307 303 300 305 312 309 309 313 313 318 320 309 306 305 303 305 304 301
231 234 236 242 241 244 234 246 247 240 250 260 266 251 264 260 269 273 285 288 287 292 296 296 296 291 296 297 301 301 303 303 307 306 310 320 317 314 306 303 305 305 305 304 301
232 236 234 237 239 243 246 249 251 250 253 261 265 263 260 267 269 279 277 284 289 289 295 293 292 290 292 297 314 299 301 303 306 307 306 320 319 302 308 306 305 304 305 302 306
229 235 235 236 240 242 246 253 255 257 257 257 260 260 250 258 266 273 280 284 286 290 290 294 298 294 294 303 299 301 302 302 300 311 314 310 308 307 304 308 304 306 307 306 310
231 235 236 239 241 244 246 250 252 253 257 258 260 266 252 268 266 278 276 282 288 285 285 290 291 298 293 311 301 297 302 300 307 312 320 307 308 309 306 303 306 305 307 301 306
234 233 238 239 241 242 244 246 249 252 252 258 262 264 257 270 274 283 275 284 283 282 289 286 311 289 295 300 307 299 301 305 310 315 314 305 305 309 305 304 299 300 294 295 300
232 233 240 236 239 242 240 245 248 251 254 256 260 260 266 272 266 279 278 278 280 286 299 287 289 291 296 301 302 301 307 312 317 315 304 302 308 302 305 300 305 303 302 302 305
235 234 236 236 237 239 240 244 247 251 254 256 255 265 266 269 275 280 280 289 282 298 285 288 302 303 311 298 300 304 306 314 315 314 303 302 303 297 299 300 301 302 298 306 313
234 231 233 235 239 241 242 245 246 251 254 258 261 261 262 273 274 276 275 282 279 283 282 287 290 300 313 295 297 304 307 316 315 304 302 298 301 295 299 304 304 308 310 312 317
232 235 234 234 236 242 242 244 247 253 256 258 262 258 266 268 271 268 270 273 282 279 280 288 307 296 304 292 295 305 311 304 307 301 298 293 296 292 290 307 301 307 306 321 316
232 234 235 239 236 239 243 246 244 252 255 259 259 264 272 259 274 262 268 274 278 282 285 287 296 290 304 297 300 306 306 313 300 303 294 289 290 294 294 308 302 304 308 315 310
233 234 234 231 237 236 237 247 246 251 243 260 258 266 267 266 260 265 269 267 276 280 283 288 286 299 290 298 299 305 308 301 301 300 293 292 284 291 297 298 299 303 319 315 312
234 235 234 236 250 241 243 238 247 254 255 258 255 255 264 257 270 268 265 273 269 278 280 283 285 290 289 291 293 304 305 301 299 297 292 291 288 292 301 299 299 308 311 314 313
234 226 228 240 239 240 238 238 238 248 246 252 254 260 260 265 263 264 263 264 276 279 272 281 279 287 294 299 302 297 295 295 297 293 290 292 293 298 298 302 307 314 315 313 313
232 240 233 234 235 235 237 238 244 245 245 256 251 255 249 253 255 260 263 268 278 290 279 287 281 285 294 289 300 301 294 295 295 287 287 291 294 296 298 303 309 311 312 311 311
233 231 232 234 234 233 248 243 243 242 248 248 257 250 246 250 261 256 270 269 273 276 279 280 283 288 288 292 290 298 294 294 292 283 285 288 291 294 296 302 307 310 308 310 312